Regional Weather Roundup
Issued by NWS

Home | Current Version | Previous Version | Graphics & Text | Print | Product List | Glossary On
Versions: 1 2 3 4 5 6 7 8 9 10 11 12 13 14 15 16 17 18 19 20 21 22 23 24 25 26 27 28 29 30 31 32 33 34 35 36 37 38 39 40 41 42 43 44 45 46 47 48 49 50
000
ASUS43 KDTX 240010
RWRMI
MICHIGAN HOURLY REGIONAL WEATHER ROUNDUP
NATIONAL WEATHER SERVICE DETROIT/PONTIAC MI
ISSUED BY NATIONAL WEATHER SERVICE GRAND RAPIDS MI
800 PM EDT TUE MAY 23 2017

NOTE: "FAIR" INDICATES FEW OR NO CLOUDS BELOW 12,000 FEET WITH NO
SIGNIFICANT WEATHER AND/OR OBSTRUCTION TO VISIBILITY.

MIZ047>049-052>055-059>063-066>070-074>076-081>083-240100-
SOUTHEAST LOWER MICHIGAN

CITY           SKY/WX    TMP DP  RH WIND       PRES   REMARKS
ADRIAN         CLOUDY    63  53  70 NE7       29.73R
6HR MIN TEMP:  62; 6HR MAX TEMP:  72; 6HR PCP:  0.04;

ALMA           CLOUDY    60  55  83 W5        29.76F
ANN ARBOR      PTCLDY    62  57  83 NW7       29.72F
BAD AXE        CLOUDY    60  55  84 NW9       29.78R
6HR MIN TEMP:  60; 6HR MAX TEMP:  67;

DETROIT CITY   CLOUDY    68  45  43 NE5       29.73S
6HR MIN TEMP:  68; 6HR MAX TEMP:  73;

DETROIT        CLOUDY    67  51  56 NW9       29.72F
6HR MIN TEMP:  67; 6HR MAX TEMP:  73;

FLINT          CLOUDY    61  55  81 SE5       29.77R
6HR MIN TEMP:  61; 6HR MAX TEMP:  70; 6HR PCP: TRACE;

GROSSE ILE     PTCLDY    68  50  52 NE3       29.70F
6HR MIN TEMP:  66; 6HR MAX TEMP:  71;

HILLSDALE      MOCLDY    61  54  77 NE7       29.72S
HOWELL         LGT RAIN  59  54  84 W5        29.74F
6HR MIN TEMP:  59; 6HR MAX TEMP:  70; 6HR PCP:  0.10;


CITY           SKY/WX    TMP DP  RH WIND       PRES   REMARKS
JACKSON        MOCLDY    60  55  83 N8        29.73F
6HR MIN TEMP:  60; 6HR MAX TEMP:  71; 6HR PCP:  0.01;

LANSING        LGT RAIN  61  56  83 N5        29.75F
6HR MIN TEMP:  61; 6HR MAX TEMP:  69; 6HR PCP:  0.01;

MASON          CLOUDY    60  56  89 N3        29.74F
MONROE         MOCLDY    66  49  54 E3        29.71S
6HR MIN TEMP:  66; 6HR MAX TEMP:  73;

MT. CLEMENS    CLOUDY    66  52  61 CALM      29.72F
6HR MIN TEMP:  66; 6HR MAX TEMP:  73;

PONTIAC        LGT RAIN  61  55  81 NW9       29.75R
6HR MIN TEMP:  61; 6HR MAX TEMP:  71; 6HR PCP:  0.01;

PORT HOPE        N/A     55  52  89 S3        29.75S
6HR MIN TEMP:  53; 6HR MAX TEMP:  57; 6HR PCP:  0.10;

PORT HURON     CLOUDY    64  48  55 CALM      29.75S
TRI CITIES     LGT RAIN  61  56  83 W7        29.77S
                                      6HR PCP:  0.02;

YPSILANTI      CLOUDY    65  54  67 NW9       29.73F
6HR MIN TEMP:  65; 6HR MAX TEMP:  76; 6HR PCP: TRACE;

$$
MIZ043>046-050>051-056>058-064>065-071>073-077>080-240100-
SOUTHWEST LOWER MICHIGAN

CITY           SKY/WX    TMP DP  RH WIND       PRES   REMARKS
BATTLE CREEK   CLOUDY    60  57  89 N6        29.74F
6HR MIN TEMP:  59; 6HR MAX TEMP:  65; 6HR PCP:  0.02;

BENTON HARBOR  PTSUNNY   61  55  81 CALM      29.70F
6HR MIN TEMP:  60; 6HR MAX TEMP:  63; 6HR PCP:  0.02;

BIG RAPIDS     CLOUDY    60  49  68 W3        29.74F
6HR MIN TEMP:  60; 6HR MAX TEMP:  66; 6HR PCP:  0.10;

COLDWATER      MOCLDY    60  57  91 N7        29.72R
6HR MIN TEMP:  60; 6HR MAX TEMP:  71;

HOLLAND        CLOUDY    60  56  86 E5        29.73F
6HR MIN TEMP:  60; 6HR MAX TEMP:  61; 6HR PCP:  0.02;

GRAND RAPIDS   CLOUDY    60  57  89 NE7       29.73F
6HR MIN TEMP:  60; 6HR MAX TEMP:  63; 6HR PCP:  0.03;

KALAMAZOO      CLOUDY    61  54  77 N5        29.72F
6HR MIN TEMP:  60; 6HR MAX TEMP:  64; 6HR PCP:  0.05;

MARSHALL       CLOUDY    59  57  93 NE3       29.72F
6HR MIN TEMP:  59; 6HR MAX TEMP:  67; 6HR PCP:  0.02;

MOUNT PLEASANT LGT RAIN  59  52  77 SW5       29.76S
6HR MIN TEMP:  59; 6HR MAX TEMP:  67; 6HR PCP:  0.01;

MUSKEGON       CLOUDY    61  55  81 NE6       29.73F
6HR MIN TEMP:  60; 6HR MAX TEMP:  64; 6HR PCP: TRACE;

STURGIS        CLOUDY    60  56  87 NE8       29.70F
6HR MIN TEMP:  60; 6HR MAX TEMP:  69;

$$
MIZ016>042-240100-
NORTHERN LOWER MICHIGAN

CITY           SKY/WX    TMP DP  RH WIND       PRES   REMARKS
ALPENA         CLOUDY    53  49  86 CALM      29.79S
6HR MIN TEMP:  53; 6HR MAX TEMP:  65;

BEAVER ISLAND  CLOUDY    58  46  64 E5        29.78S
6HR MIN TEMP:  58; 6HR MAX TEMP:  62;

BELLAIRE       CLOUDY    63  48  59 E7        29.75R
6HR MIN TEMP:  62; 6HR MAX TEMP:  67;

CADILLAC       RAIN      54  53  97 NE3       29.75S
CHARLEVOIX     CLOUDY    55  44  68 CALM      29.79S
6HR MIN TEMP:  49; 6HR MAX TEMP:  58;

GAYLORD        CLOUDY    59  47  64 VRB5      29.77R
6HR MIN TEMP:  59; 6HR MAX TEMP:  67; 6HR PCP:  0.04;

HOUGHTON LAKE  LGT RAIN  55  53  93 CALM      29.77S FOG
6HR MIN TEMP:  55; 6HR MAX TEMP:  68; 6HR PCP:  0.61;

MANISTEE       LGT RAIN  57  54  88 SW3       29.76R
OSCODA         LGT RAIN  54  51  91 S5        29.78R
6HR MIN TEMP:  53; 6HR MAX TEMP:  62;

PELLSTON       CLOUDY    60  42  51 NE6       29.78S
6HR MIN TEMP:  60; 6HR MAX TEMP:  63;

TRAVERSE CITY  LGT RAIN  54  47  77 VRB7      29.75R
6HR MIN TEMP:  54; 6HR MAX TEMP:  62; 6HR PCP:  0.03;

LUDINGTON      LGT RAIN  51  51  98 N3        29.75S
6HR MIN TEMP:  51; 6HR MAX TEMP:  59;

$$
MIZ007>008-015-240100-
EASTERN UPPER MICHIGAN

CITY           SKY/WX    TMP DP  RH WIND       PRES   REMARKS
KINROSS        MOSUNNY   54  43  66 N12       29.79S
6HR MIN TEMP:  53; 6HR MAX TEMP:  62;

MACKINAC ISLAN MOSUNNY   58  42  56 CALM      29.79R
6HR MIN TEMP:  51; 6HR MAX TEMP:  59;

NEWBERRY       CLOUDY    55  45  69 N7        29.80R
6HR MIN TEMP:  55; 6HR MAX TEMP:  59;

S. S. MARIE    MOSUNNY   57  44  62 W7        29.79R
6HR MIN TEMP:  57; 6HR MAX TEMP:  64;

$$
MIZ004>006-011>014-085-240100-
CENTRAL UPPER MICHIGAN

CITY           SKY/WX    TMP DP  RH WIND       PRES   REMARKS
MANISTIQUE     CLOUDY    58  44  61 N10       29.78R
6HR MIN TEMP:  56; 6HR MAX TEMP:  62;

ESCANABA       CLOUDY    53  49  86 N7        29.79
6HR MIN TEMP:  53; 6HR MAX TEMP:  57; 6HR PCP:  0.10;

MENOMINEE      CLOUDY    52  49  89 N5        29.79S
6HR MIN TEMP:  50; 6HR MAX TEMP:  52; 6HR PCP:  0.03;

SAWYER-GWINN   CLOUDY    46  43  87 NE12      29.83S
$$
MIZ001>003-009>011-084-240100-
WESTERN UPPER MICHIGAN

CITY           SKY/WX    TMP DP  RH WIND       PRES   REMARKS
IRON MOUNTAIN  PTSUNNY   58  41  53 NE8       29.78R
6HR MIN TEMP:  55; 6HR MAX TEMP:  60;

HOUGHTON       CLOUDY    50  42  74 NE8       29.86S
6HR MIN TEMP:  49; 6HR MAX TEMP:  57;

COPPER HARBOR    N/A     45  42  89 CALM      29.87S
6HR MIN TEMP:  41; 6HR MAX TEMP:  46;

IRONWOOD       CLOUDY    50  45  83 NE7       29.86R
6HR MIN TEMP:  50; 6HR MAX TEMP:  57; 6HR PCP:  0.01;

$$

ABBREVIATIONS USED IN REMARKS
   TC - TEMPERATURE IN CELSIUS
  WCI - WIND CHILL INDEX
   HX - HEAT INDEX
  VSB - VISIBILITY





USA.gov is the U.S. government's official web portal to all federal, state and local government web resources and services.